Location: Mount Tamalpais State Park
(37.9108°N, 122.6128°W)
Time: 01:55:12
(UTC-07:00)

Daily predictions for brighter satellites

Satellite Brightness Start Highest point End
(mag) Time Altitude Azimuth Time Altitude Azimuth Time Altitude Azimuth
CZ-2C R/B 4.4 00:00:03 10° N 00:02:36 29° N 00:02:36 29° N
CZ-4C R/B 4.0 00:14:52 26° NW 00:14:52 26° NW 00:19:27 10° NNE
USA 234 4.0 00:20:17 48° NNW 00:20:17 48° NNW 00:25:00 10° NW
ATLAS 5 CENTAUR R/B 3.8 00:13:58 10° NNW 00:17:13 35° NNW 00:17:13 35° NNW
Lacrosse 5 4.5 00:27:07 10° NW 00:28:06 16° NW 00:28:06 16° NW
ADEOS Rocket 4.4 01:51:26 10° N 01:55:53 33° NNW 01:55:53 33° NNW
Lacrosse 4 Rocket 4.4 02:16:37 10° N 02:17:39 15° NNE 02:17:39 15° NNE
Cosmos 1833 Rocket 4.3 02:23:18 31° NE 02:23:18 31° NE 02:26:17 10° NNE
Lacrosse 5 rocket 4.2 02:47:04 17° NNE 02:47:04 17° NNE 02:48:04 10° NE
ARIANE 5 R/B 4.1 02:50:18 10° NE 02:54:03 29° ENE 02:54:03 29° ENE
Cosmos 1092 Rocket 4.2 03:01:29 10° N 03:06:47 66° N 03:06:47 66° N
CZ-2D R/B 2.8 03:05:52 10° NNE 03:09:59 52° NE 03:09:59 52° NE
Cosmos 1980 Rocket 2.7 03:15:30 10° NNW 03:21:02 56° ENE 03:21:31 54° E
SL-16 R/B 2.5 03:21:58 74° NNW 03:21:58 74° NNW 03:27:40 10° NNW
IRS-1D 4.1 03:16:19 10° NNE 03:20:29 57° NE 03:20:29 57° NE
Cosmos 1697 Rocket 3.7 03:17:44 10° NNW 03:21:08 38° NNW 03:21:08 38° NNW
H-2A R/B 4.4 03:22:15 10° N 03:24:09 25° N 03:24:09 25° N
Cosmos 2082 Rocket 3.1 03:30:21 39° NW 03:30:21 39° NW 03:34:43 10° N
ADEOS II 4.0 03:27:09 10° NE 03:31:16 23° E 03:33:18 18° SE
ADEOS 4.5 03:28:38 10° NNE 03:33:33 40° E 03:34:05 39° ESE
SL-16 R/B 4.3 03:29:19 10° N 03:33:53 24° ENE 03:38:27 10° ESE
Cosmos 1627 Rocket 4.3 03:29:28 10° N 03:35:52 85° W 03:35:58 84° WSW
MOZ.5/SAFIR/RUBIN 5/SL-8 4.5 03:38:46 49° N 03:38:46 49° N 03:42:16 10° N
Resurs 1-4 Rocket 2.6 03:41:28 10° N 03:45:43 47° NW 03:45:43 47° NW
Cosmos 2322 Rocket 4.0 03:44:32 10° N 03:49:29 30° ENE 03:54:22 10° ESE
Cosmos 1842 4.4 03:52:06 40° ENE 03:52:06 40° ENE 03:55:27 10° NNE
Cosmos 1892 Rocket 3.9 03:52:40 62° NE 03:52:40 62° NE 03:56:28 10° NNE
ATLAS 3B R/B 3.2 03:50:48 41° SSE 03:53:01 56° ESE 03:59:49 10° NE
Cosmos 1634 Rocket 4.3 03:54:14 47° WNW 03:54:14 47° WNW 04:00:01 10° N
Cosmos 1763 Rocket 3.5 03:54:44 67° SE 03:55:10 71° ESE 04:00:28 10° NNE
Cosmos 2180 Rocket 4.5 03:56:17 55° S 03:57:51 87° E 04:04:18 10° N
NOSS 3-2 (A) 4.4 03:57:37 29° SSE 03:59:38 38° ESE 04:05:21 10° NE
CBERS 1 LM4 rocket 4.4 03:56:15 10° NNE 04:01:30 84° WNW 04:02:00 74° SW
Cosmos 1833 Rocket 4.3 04:04:59 21° NW 04:05:03 21° NW 04:09:16 10° N
Cosmos 2279 Rocket 4.0 04:06:07 57° WSW 04:07:05 64° W 04:13:19 10° N
Cosmos 1805 3.7 04:05:37 10° N 04:09:27 56° E 04:09:42 55° E
Cosmos 1898 Rocket 3.3 04:07:10 10° NNW 04:12:22 70° WSW 04:12:50 66° SW
SEDSat Delta rocket 4.1 04:14:00 47° SSW 04:14:42 49° S 04:21:09 10° ESE
Cosmos 44 4.1 04:09:32 10° NNW 04:14:43 56° ENE 04:20:00 10° SE
Cosmos 1766 4.0 04:12:56 10° NNW 04:15:42 44° NNW 04:15:42 44° NNW
USA 215 3.5 04:11:03 10° NE 04:17:30 59° SE 04:20:18 34° SSW
Cosmos 2026 Rocket 4.4 04:12:17 10° NNW 04:18:12 42° W 04:18:34 42° W
Cosmos 1937 Rocket 3.3 04:17:17 10° NNW 04:22:29 80° WSW 04:25:29 25° S
Lacrosse 5 rocket 3.8 04:22:44 12° NW 04:23:42 13° NNW 04:25:34 10° N
Cosmos 858 Rocket 4.4 04:22:03 10° NNW 04:27:12 62° WSW 04:28:52 40° SSW
ARIANE 5 R/B 3.5 04:29:24 10° N 04:33:54 30° WNW 04:34:24 30° WNW
Okean O Rocket 4.3 04:32:22 10° NE 04:35:06 16° E 04:37:49 10° SE
Cosmos 1758 3.6 04:33:07 10° N 04:37:05 65° E 04:40:21 15° SSE
Cosmos 990 Rocket 3.9 04:32:22 10° NNW 04:37:25 57° WSW 04:40:21 25° S
Timation 2 Rocket 4.0 04:37:40 36° WSW 04:39:54 56° WNW 04:45:47 10° NNE
Helios 1A Rocket 4.1 04:36:35 10° N 04:39:56 28° WNW 04:39:56 28° WNW
CZ-2D R/B 4.2 04:38:28 10° N 04:42:12 35° WNW 04:42:18 35° WNW
Cosmos 1814 Rocket 4.4 04:41:18 36° WSW 04:42:30 43° WNW 04:47:26 10° N
Cosmos 44 Rocket 3.7 04:38:58 10° NNW 04:44:06 68° ENE 04:49:16 10° SE
Cosmos 1733 3.5 04:41:40 10° N 04:45:31 67° E 04:49:21 10° SSE
CZ-2D R/B 4.0 04:47:53 10° NNW 04:50:37 14° WNW 04:51:19 14° WNW
Cosmos 2150 Rocket 4.1 04:46:28 10° NNW 04:51:51 60° WSW 04:57:11 10° S
Cosmos 2266 Rocket 3.9 04:47:36 10° NNW 04:53:38 67° W 04:59:44 10° S
USA 238 DEB 4.0 04:52:34 26° WSW 04:56:16 52° NW 05:03:03 10° NNE
USA 238 4.0 04:52:40 26° WSW 04:56:22 52° NW 05:03:10 10° NNE
DNEPR-1 R/B 3.5 04:55:33 34° SW 04:57:16 70° WNW 05:01:46 10° NNE
PSLV R/B 3.6 04:53:26 10° NNE 04:57:39 74° E 05:01:12 14° S
Cosmos 2298 Rocket 4.3 04:54:00 10° NNW 04:59:02 44° WSW 05:04:02 10° S
Cosmos 2360 Rocket 3.1 04:57:02 10° NNW 05:02:31 51° ENE 05:07:58 10° SE
Cosmos 1980 Rocket 3.7 05:00:50 10° WNW 05:03:11 17° W 05:03:11 17° W
UNKNOWN OBJECT B 4.4 05:02:02 10° NNW 05:04:37 17° WNW 05:04:43 17° WNW
SL-16 R/B 4.4 05:07:03 10° WNW 05:07:03 10° WNW 05:07:24 10° WNW
Cosmos 1812 Rocket 3.5 05:03:20 10° N 05:07:50 89° W 05:12:16 10° S
CZ-4B R/B 3.2 05:03:51 10° NNE 05:08:01 69° E 05:11:57 10° S
Cosmos 1602 Rocket 3.8 05:08:08 22° SW 05:10:35 47° W 05:14:46 10° N
Cosmos 841 Rocket 4.3 05:08:35 23° WSW 05:10:55 32° WNW 05:15:35 10° N
ADEOS II 2.6 05:06:12 10° N 05:11:04 40° WNW 05:14:15 20° SW
USA 161 4.1 05:08:48 10° SE 05:11:21 25° ENE 05:13:52 10° NNE
Cosmos 1470 2.7 05:07:59 10° N 05:11:58 75° W 05:15:54 10° S
Cosmos 2058 Rocket 4.3 05:08:48 10° NW 05:12:09 21° W 05:12:40 21° W
Cosmos 1758 Rocket 4.4 05:12:45 10° SSE 05:16:55 51° E 05:21:09 10° NNE
SL-16 R/B 2.4 05:12:48 10° NW 05:18:12 46° WSW 05:23:33 10° S
BREEZE-M DEB (TANK) 2.1 05:18:43 27° W 05:19:34 43° NNW 05:21:55 10° NE
Cosmos 1238 Rocket 4.2 05:14:07 10° S 05:20:33 85° E 05:27:18 10° N
Cosmos 1626 Rocket 4.4 05:20:51 19° SW 05:23:04 30° WNW 05:26:53 10° NNW
Cosmos 540 Rocket 4.0 05:22:35 16° SW 05:26:15 41° WNW 05:31:07 10° N
Cosmos 1378 3.8 05:24:03 17° SW 05:26:25 36° W 05:29:55 10° N
Cosmos 1707 2.9 05:23:33 12° SSW 05:27:03 51° W 05:30:52 10° N
SJ 16-02 1.4 05:26:59 10° NNW 05:31:21 59° WSW 05:35:41 10° S
Centaur D AC-28 4.4 05:07:28 15° WSW 05:32:01 47° S 05:37:58 10° ESE
NOSS 3-2 (C) 3.6 05:28:09 13° SW 05:33:21 62° NW 05:39:48 10° NNE
Cosmos 2322 Rocket 2.7 05:28:26 10° NW 05:33:30 35° WSW 05:38:31 10° SSW
Meteor 1-16 Rocket 4.3 05:30:03 10° N 05:35:43 84° E 05:41:11 10° S
ATLAS CENTAUR R/B 2.3 05:31:33 10° NNW 05:35:58 60° ENE 05:40:37 10° SE
ATLAS 3B R/B 3.7 05:38:03 11° WSW 05:44:00 32° NW 05:50:06 10° NNE
Meteor 1-31 Rocket 2.7 05:41:21 10° NNE 05:45:14 89° W 05:49:04 10° SSW
Cosmos 1953 3.6 05:43:48 10° NW 05:46:59 22° W 05:50:08 10° SW
PSLV R/B 4.3 05:43:47 10° N 05:47:22 38° WNW 05:50:51 10° SW
NOSS 3-2 (A) 4.3 05:45:02 10° WSW 05:50:25 36° NW 05:56:23 10° NNE
Cosmos 1400 Rocket 3.0 05:46:44 10° S 05:50:37 77° E 05:54:35 10° NNE
PAYLOAD B 4.3 05:45:04 10° N 05:50:41 76° WNW 05:56:16 10° SSW
Cosmos 1674 4.4 05:51:07 10° SSE 05:54:37 36° E 05:58:07 10° NNE
Aureole 2 Rocket 3.2 05:52:09 10° NW 05:55:33 33° WSW 05:58:44 10° SSW
PSLV R/B 3.1 05:54:01 10° W 05:56:58 67° NNW 05:59:58 10° ENE
In-Cosmos 22 4.2 05:52:04 10° S 05:57:35 89° W 06:03:00 10° N
CZ-4B R/B 3.2 05:52:35 10° N 05:58:09 78° WNW 06:03:35 10° SSW
Meteor 1-28 Rocket 3.3 05:55:17 10° S 05:58:57 56° W 06:02:39 10° NNW
USA 215 4.0 05:54:16 10° NE 06:00:18 41° NNW 06:06:19 10° W
